SCP
0 0 0 0 0 0 0 0 0 0 0 0 0 0 0 0 0 0 0 0 0 0 0 0 0 0 0 0 0 0 0 0 0 0 0 0 0 0 0 0 0 0 0
0 0 0 0 0 0 0 0 0 0 0 0 0 0 0 0 0 0 0 0 0 0 0 0 0 0 0 0 0 0 0 0 0 0 0 0 0 0 0 0 0 0 0
0 0 0 0 0 0 0 0 0 0 0 0 0 0 0 0 0 0 0 0 0 0 0 0 0 0 0 0 0 0 0 0 0 0 0 0 0 0 0 0 0 0 0
0 0 0 0 0 0 0 0 0 0 0 0 0 0 0 0 0 0 0 0 0 0 0 0 0 0 0 0 0 0 0 0 0 0 0 0 0 0 0 0 0 0 0
0 0 0 0 0 0 0 0 0 0 0 0 0 0 0 0 0 0 0 0 0 0 0 0 0 0 0 0 0 0 0 0 0 0 0 0 0 0 0 0 0 0 0
0 0 0 0 0 0 0 0 0 0 0 0 0 0 0 0 0 0 0 0 0 0 0 0 0 0 0 0 0 0 0 0 0 0 0 0 0 0 0 0 0 0 0
1 1 1 0 0 0 0 0 0 0 0 0 0 0 0 0 0 0 0 0 0 0 0 0 0 0 0 0 0 0 0 0 0 0 0 0 0 0 0 0 0 0 0
1 1 1 1 1 0 0 0 0 0 0 0 0 0 0 0 0 0 0 0 0 0 0 0 0 0 0 0 0 0 0 0 0 0 0 0 0 0 0 0 0 0 0
1 1 1 1 1 0 0 0 0 0 0 0 0 0 0 0 0 0 0 0 0 0 0 0 0 0 0 0 0 0 0 0 0 0 0 0 0 0 0 0 0 0 0
1 1 1 1 1 0 0 0 0 0 0 0 0 0 0 0 0 0 0 0 0 0 0 0 0 0 0 0 0 0 0 0 0 0 0 0 0 0 0 0 0 0 0
1 1 1 1 1 0 0 0 0 0 0 0 0 0 0 0 0 0 0 0 0 0 0 0 0 0 0 0 0 0 0 0 0 0 0 0 0 0 0 0 0 0 0
1 1 1 1 1 0 0 0 0 0 0 0 0 0 0 0 0 0 0 0 0 0 0 0 0 0 0 0 0 0 0 0 0 0 0 0 0 0 0 0 0 0 0
1 1 1 1 1 0 0 0 0 0 0 0 0 0 0 0 0 0 0 0 0 0 0 0 0 0 0 0 0 0 0 0 0 0 0 0 0 0 0 0 0 0 0
0 0 1 0 0 0 0 0 0 0 0 0 0 0 0 0 0 0 0 0 0 0 0 0 0 0 0 0 0 0 0 0 0 0 0 0 0 0 0 0 0 0 0
0 0 0 0 0 0 0 0 0 0 0 0 0 0 0 0 0 0 0 0 0 0 0 0 0 0 0 0 0 0 0 0 0 0 0 0 0 0 0 0 0 0 0
0 0 0 0 0 0 0 0 0 0 0 0 0 0 0 0 0 0 0 0 0 0 0 0 0 0 0 0 0 0 0 0 0 0 0 0 0 0 0 0 0 0 0
0 0 0 0 0 0 0 0 0 0 0 0 0 0 0 0 0 0 0 0 0 0 0 0 0 0 0 0 0 0 0 0 0 0 0 0 0 0 0 0 0 0 0
0 0 0 0 0 0 0 0 0 0 0 0 0 0 0 0 0 0 0 0 0 0 0 0 0 0 0 0 0 0 0 0 0 0 0 0 0 0 0 0 0 0 0
0 0 0 0 0 0 0 0 0 0 0 0 0 0 0 0 0 0 0 0 0 0 0 0 0 0 0 0 0 0 0 0 0 0 0 0 0 0 0 0 0 0 0
0 0 0 0 0 0 0 0 0 0 0 0 0 0 0 0 0 0 0 0 0 0 0 0 0 0 0 0 0 0 0 0 0 0 0 0 0 0 0 0 0 0 0
0 0 0 0 0 0 0 0 0 0 0 0 0 0 0 0 0 0 0 0 0 0 0 0 0 0 0 0 0 0 0 0 0 0 0 0 0 0 0 0 0 0 0
0 0 0 0 0 0 0 0 0 0 0 0 0 0 0 0 0 0 0 0 0 0 0 0 0 0 0 0 0 0 0 0 0 0 0 0 0 0 0 0 0 0 0
0 0 0 0 0 0 0 0 0 0 0 0 0 0 0 0 0 0 0 0 0 0 0 0 0 0 0 0 0 0 0 0 0 0 0 0 0 0 0 0 0 0 0
0 0 0 0 0 0 0 0 0 0 0 0 0 0 0 0 0 0 0 0 0 0 0 0 0 0 0 0 0 0 0 0 0 0 0 0 0 0 0 0 0 0 0
0 0 0 0 0 0 0 0 0 0 0 0 0 0 0 0 0 0 0 0 0 0 0 0 0 0 0 0 0 0 0 0 0 0 0 0 0 0 0 0 0 0 0
0 0 0 0 0 0 0 0 0 0 0 0 0 0 0 0 0 0 0 0 0 0 0 0 0 0 0 0 0 0 0 0 0 0 0 0 0 0 0 0 0 0 0
Wind_Speed
3 4 3 5 5 4 3 3 4 3 1 2 1 3 3 3 4 6 5 7 6 4 4 4 3 3 2 2 2 3 4 5 6 7 6 6 6 5 5 4 4 4 3
3 3 3 3 2 3 4 4 3 3 1 1 3 3 3 3 3 6 6 5 6 5 4 4 3 3 3 3 3 4 4 5 6 6 6 6 5 5 5 4 4 3 3
5 4 3 4 3 3 4 2 1 2 2 2 2 1 3 3 2 4 6 6 5 5 5 4 4 4 4 3 3 4 4 4 5 6 6 6 6 5 5 4 3 3 2
6 5 2 3 3 2 1 2 1 1 1 2 2 2 2 2 2 2 4 5 6 5 4 5 5 5 5 4 3 4 4 4 4 4 5 5 5 5 5 4 4 3 3
5 5 3 2 2 2 1 2 2 1 1 1 1 2 1 2 1 2 2 5 6 6 5 6 7 6 5 5 4 4 4 4 4 4 4 4 4 4 4 4 4 4 4
4 5 4 2 1 2 1 0 1 1 1 0 1 1 1 1 2 2 1 2 3 6 7 7 5 4 6 6 5 4 4 5 5 4 3 3 3 3 4 4 4 5 4
3 5 3 3 2 2 1 1 0 1 0 1 1 2 1 2 3 3 2 2 2 4 6 7 5 5 4 6 5 5 5 5 5 4 3 3 2 2 3 3 4 5 4
3 4 4 3 2 1 1 1 1 0 1 1 1 1 2 3 3 3 3 2 2 2 3 4 6 6 6 4 5 7 6 5 5 4 3 3 3 2 2 2 1 2 3
3 3 3 3 2 3 3 3 3 3 3 2 2 2 2 3 2 3 4 4 4 2 3 2 4 6 7 6 6 7 8 6 5 4 4 3 4 3 2 2 1 1 1
2 3 2 2 2 2 3 5 5 4 4 4 3 2 3 3 2 2 2 2 4 4 4 3 2 1 5 6 8 11 10 7 5 5 5 5 4 4 3 3 2 1 0
2 2 2 1 2 2 3 5 4 4 4 5 4 3 3 3 3 3 2 3 2 2 3 2 3 2 3 6 7 10 12 9 6 5 6 6 5 4 4 3 2 1 0
2 1 2 1 2 2 3 4 5 5 5 5 4 4 3 3 3 3 3 3 3 3 3 2 2 3 3 5 8 15 13 11 8 6 5 5 5 5 4 3 2 0 1
2 1 1 1 2 2 2 3 3 4 4 5 4 3 3 3 2 2 2 3 3 3 2 2 3 3 4 4 6 15 13 13 10 8 7 6 5 5 4 3 2 1 1
2 1 1 2 2 2 2 2 2 3 3 3 4 4 3 3 2 3 3 3 2 3 3 3 1 3 3 4 8 15 9 14 13 11 10 9 7 6 6 5 4 2 1
1 1 2 3 3 3 3 2 2 3 2 1 0 1 2 2 2 2 2 3 3 3 4 4 2 2 1 1 7 8 7 14 15 14 12 11 10 9 8 7 5 4 3
0 1 3 4 4 4 4 2 1 1 1 1 1 1 2 1 2 2 2 3 3 4 3 2 3 2 1 1 5 6 7 15 18 16 15 14 12 11 10 9 7 6 5
3 4 5 5 5 6 5 4 2 2 2 2 3 3 3 3 2 2 2 2 3 3 4 3 2 2 1 1 1 3 4 6 9 16 16 15 14 13 12 11 9 8 7
5 5 5 5 3 3 2 4 3 2 3 2 2 2 3 2 3 2 2 3 3 4 4 4 3 3 4 3 2 4 4 4 6 14 18 17 16 15 13 12 11 10 9
4 4 3 1 1 2 1 1 2 3 3 3 2 2 2 1 1 1 2 2 2 3 3 3 3 3 3 2 2 3 4 3 4 8 15 16 15 15 14 14 13 12 11
3 3 3 2 2 2 3 2 1 1 2 2 2 2 1 1 2 2 1 0 1 1 2 2 3 2 2 2 2 3 3 3 3 2 5 8 11 14 14 14 14 13 13
6 5 5 6 6 5 6 7 6 4 4 3 2 2 2 5 6 3 1 1 2 1 0 1 2 1 1 1 2 2 3 2 2 2 2 4 5 6 8 12 14 15 14
7 7 7 7 8 8 10 10 7 5 5 4 4 2 2 5 6 6 4 3 1 1 1 1 1 1 2 2 2 2 2 1 2 1 1 2 3 4 4 5 10 15 16
7 7 8 7 8 9 13 13 11 6 5 4 4 3 1 2 4 3 6 6 4 4 3 1 1 1 1 0 1 1 1 1 1 0 0 1 0 1 1 1 3 8 12
6 6 7 6 6 9 15 14 13 6 4 4 4 3 3 2 3 3 1 2 3 4 4 2 1 2 2 1 1 1 1 1 1 1 0 1 0 1 1 1 2 2 5
5 5 5 6 6 8 14 15 13 5 4 4 3 3 5 4 7 7 4 2 1 1 3 4 4 4 4 3 3 2 2 1 0 1 1 0 0 1 1 1 2 3 3
4 4 4 5 5 5 11 15 14 5 5 4 3 4 8 6 6 7 5 4 3 1 1 2 2 2 2 2 1 0 1 0 0 1 1 1 0 0 2 1 1 1 2
Wind_Direction
201 170 179 164 182 177 171 244 243 185 121 66 30 50 80 97 107 111 123 126 122 116 116 121 126 127 139 147 147 156 159 163 160 154 153 149 142 136 128 120 110 99 84
191 156 187 147 198 167 169 220 229 126 135 88 57 50 25 48 103 126 135 135 132 127 124 125 127 128 138 159 173 171 167 171 170 167 164 163 159 155 151 145 135 123 104
182 161 193 154 198 188 184 218 194 133 140 123 123 87 78 22 354 121 137 150 144 128 124 123 123 119 116 118 137 160 162 170 177 179 178 178 178 177 175 171 167 163 148
177 162 171 152 181 174 176 121 24 112 169 167 169 175 144 142 281 110 168 157 150 142 132 128 122 118 116 115 119 136 151 158 167 178 183 185 187 189 190 190 195 200 195
166 143 141 143 168 141 149 160 185 192 202 168 166 149 189 165 148 255 218 148 144 149 145 145 142 136 132 128 129 139 149 152 155 162 168 176 184 192 202 207 216 219 220
141 125 125 136 103 114 111 321 156 113 30 53 283 192 186 194 214 255 337 112 162 160 153 159 160 159 156 147 142 149 154 154 152 151 156 167 178 196 206 216 223 227 230
111 116 127 133 98 103 147 254 278 159 194 344 337 336 310 255 246 202 206 250 224 146 159 169 174 165 164 162 151 152 152 152 146 142 142 148 163 190 207 223 230 230 230
136 129 132 133 135 137 196 261 289 120 206 219 189 194 304 307 281 243 195 193 267 158 197 188 174 166 167 159 163 148 138 142 145 146 150 149 145 150 172 199 217 224 230
130 126 138 145 170 178 204 225 226 211 218 244 224 182 188 230 271 274 226 194 206 203 206 230 194 177 164 147 147 141 136 138 145 150 151 153 153 154 160 175 190 201 229
125 130 134 179 207 205 212 220 222 208 208 226 248 234 226 213 185 284 299 240 203 204 207 210 218 179 153 141 153 154 149 149 158 166 165 158 156 152 146 141 140 147 254
106 122 132 164 233 233 227 228 231 213 201 212 221 229 243 260 239 213 256 287 276 224 205 210 181 191 159 143 150 161 159 160 167 176 174 168 164 158 157 150 144 139 305
91 93 139 165 227 241 243 242 231 224 210 215 220 222 217 219 227 223 223 241 255 256 220 205 182 188 178 155 167 164 166 168 173 175 174 172 170 166 159 154 159 169 299
116 127 169 207 221 228 241 245 241 232 218 218 219 219 221 224 228 224 224 240 249 263 257 221 198 195 190 164 156 166 174 174 179 181 179 176 175 178 183 190 198 220 263
127 150 202 240 234 228 239 228 243 253 238 226 217 211 207 227 224 210 205 214 243 259 249 243 230 216 198 179 174 176 182 183 184 188 188 187 187 191 196 203 208 215 234
135 161 223 229 225 211 224 225 210 246 240 243 201 252 214 219 220 222 217 200 197 227 245 234 228 238 222 202 174 187 183 191 191 193 193 194 195 198 202 206 207 209 219
15 266 268 244 216 199 204 201 220 243 261 215 147 261 268 239 226 215 216 218 202 205 242 239 221 228 187 242 191 200 203 192 197 196 196 197 198 200 203 207 208 210 217
248 248 252 251 218 197 193 167 200 188 237 245 204 208 218 222 211 221 223 222 218 201 227 254 228 218 197 232 225 263 231 184 195 200 199 200 200 202 205 209 211 213 217
266 263 252 246 199 154 163 155 181 181 221 246 240 212 217 210 205 217 213 222 223 214 214 241 242 224 219 218 206 252 253 205 195 201 202 202 203 204 206 210 213 215 218
277 274 262 264 114 130 146 144 180 211 222 224 230 224 224 185 194 195 204 222 229 236 217 223 242 230 223 211 211 242 257 258 239 202 201 205 206 206 208 211 214 217 220
317 320 331 8 57 62 32 5 341 291 279 257 231 225 215 119 85 54 51 67 229 257 243 232 244 241 225 206 191 220 245 245 253 232 204 206 210 213 215 216 219 221 223
4 10 14 24 35 43 31 14 354 340 324 314 303 273 132 117 113 106 82 29 14 341 284 255 260 248 223 195 211 207 225 246 254 230 209 209 201 207 216 225 228 227 226
17 21 23 34 45 36 23 21 6 342 330 329 323 332 145 165 164 174 184 196 207 316 340 338 279 269 248 221 212 202 208 224 254 255 204 227 195 208 217 214 224 224 226
34 34 34 43 54 33 19 12 2 332 307 306 309 313 312 113 150 195 204 210 221 222 227 319 358 327 323 270 166 190 207 208 218 312 68 267 283 236 270 286 270 224 227
43 42 36 41 49 35 19 9 353 320 298 300 304 321 335 25 46 26 21 205 198 183 200 200 70 57 52 60 106 148 163 139 99 21 101 242 254 239 277 309 329 260 231
40 49 38 35 38 30 18 10 360 330 331 329 340 20 34 55 40 28 4 351 61 113 143 120 101 97 89 79 88 84 87 93 324 256 158 192 310 313 286 261 240 227 241
32 54 56 46 39 29 21 16 8 357 354 349 1 49 58 58 37 23 7 11 29 18 110 141 150 171 172 155 163 151 149 151 300 304 180 176 294 8 323 299 251 225 253